Theta_e
298 297 297 297 299 299 299 299 299 298 297 300 302 305 308 309 310 310 308 306 307 308 310 309 309 310 310 309 309 310 310 311 311 309 310 310 307 307 307 306 307 308 308 309 308 306 305 305 304 303 302 303 305 305 306 307 307 307 307 307 308 311 312 310 309 309 309 310 310 311 312 312 311 311 311 311 312 312 313 314 314 312 310 310 311 311 314
298 297 297 298 299 299 299 299 298 298 298 299 301 306 308 308 309 310 308 307 307 309 309 307 308 308 307 309 309 310 311 310 310 310 310 311 308 307 308 307 306 307 308 309 309 307 307 306 304 303 303 303 305 305 306 307 306 307 308 309 309 311 312 310 309 310 310 310 311 311 312 312 311 311 312 313 312 313 315 314 314 313 311 311 312 311 314
298 297 296 298 299 299 299 299 298 298 298 299 302 307 308 308 309 309 309 308 308 308 308 308 308 307 307 308 309 310 311 310 310 309 308 311 310 307 308 307 305 307 308 309 309 308 308 306 304 302 303 304 304 305 306 306 306 307 309 309 310 311 312 311 309 310 310 310 311 311 312 312 311 312 312 312 312 312 313 313 312 313 312 312 312 312 315
298 296 297 298 299 299 299 299 298 299 299 299 302 307 308 308 308 307 307 308 308 308 309 309 308 306 307 308 309 310 310 309 309 308 308 310 310 307 306 307 306 307 308 309 310 308 308 307 304 303 304 304 305 305 305 306 307 308 309 309 309 311 313 313 313 312 311 311 311 311 312 312 312 312 311 312 313 313 313 312 311 313 312 311 313 314 316
297 297 297 298 299 299 299 298 298 299 300 300 301 307 309 306 306 306 306 306 307 307 307 308 307 306 307 309 309 309 309 309 309 308 309 310 310 309 307 306 307 309 309 310 310 309 308 308 306 304 305 305 305 305 305 306 307 308 309 308 310 312 312 314 315 315 313 312 311 310 311 312 311 312 312 312 313 313 314 312 312 314 312 310 314 317 316
297 297 297 298 298 299 299 298 298 299 301 301 303 307 308 305 305 307 306 305 307 306 306 307 307 307 309 309 308 309 309 309 309 308 309 309 310 312 310 308 308 309 309 310 311 310 309 308 307 307 306 305 305 305 305 306 307 308 308 308 311 313 312 313 315 316 313 312 312 311 310 311 311 312 312 312 313 313 313 313 315 315 313 313 316 318 317
297 297 297 297 298 299 299 298 298 299 301 302 304 305 305 304 304 305 305 304 306 306 307 308 308 308 309 307 307 308 309 309 309 308 309 310 311 312 312 310 311 310 310 311 312 310 308 308 308 310 309 307 306 306 306 306 307 307 308 310 311 312 313 314 316 315 314 313 313 312 310 311 311 311 313 313 313 313 314 314 316 316 315 316 317 317 318
297 297 297 297 298 298 299 298 298 299 301 303 304 303 303 302 302 303 302 303 305 307 308 308 308 308 307 307 307 309 309 308 308 308 309 310 310 312 312 311 313 313 312 312 312 312 311 311 311 311 311 309 307 307 307 307 307 307 309 311 313 313 314 315 315 315 314 314 313 313 312 311 311 311 312 313 313 313 314 314 316 316 315 316 317 316 318
297 297 297 297 298 298 298 298 299 299 300 303 303 302 301 301 301 301 301 303 305 306 307 307 307 307 306 306 307 308 307 307 307 308 308 309 310 311 312 312 314 314 313 314 314 314 314 314 313 312 312 310 309 308 308 308 309 308 309 311 314 315 314 315 316 315 315 315 315 315 315 314 313 312 312 313 313 314 314 314 316 316 315 316 315 314 316
297 297 297 298 298 298 298 298 298 299 300 302 302 301 300 301 301 301 301 303 305 305 306 307 306 306 306 306 306 306 307 307 307 308 309 309 310 311 312 313 315 314 314 315 316 315 314 314 313 313 312 311 311 310 310 309 309 309 310 312 315 316 315 316 318 317 317 318 318 317 316 315 315 314 314 315 314 315 315 315 315 316 316 316 315 315 318
297 297 298 298 297 297 298 299 298 299 300 301 301 301 300 300 300 301 301 302 304 304 305 306 306 306 307 306 306 306 307 307 307 309 309 309 310 311 313 314 315 315 315 315 315 314 314 312 312 313 313 312 312 312 311 311 309 309 310 312 314 316 316 317 319 319 319 320 320 319 317 315 316 316 316 316 315 314 315 315 315 316 316 316 316 317 319
297 297 298 298 298 297 298 299 299 299 300 300 301 301 300 300 300 300 301 301 303 304 305 305 306 306 306 305 306 307 307 307 307 308 309 309 310 311 313 314 315 314 313 314 314 314 313 312 312 313 313 313 312 311 311 311 309 309 310 312 315 316 315 315 317 317 318 318 318 319 317 316 318 317 316 316 316 315 315 315 316 316 315 316 317 317 318
297 297 297 297 298 298 298 299 299 299 299 300 301 301 300 300 300 300 300 301 302 303 304 305 305 305 305 305 305 306 307 307 307 308 309 310 311 312 312 312 313 313 313 314 315 315 314 313 313 313 312 312 312 310 310 311 310 309 310 312 314 315 315 316 317 317 318 317 316 317 318 319 320 320 317 316 316 316 316 316 316 316 316 316 316 315 316
297 297 297 297 298 298 299 299 299 299 298 299 301 301 300 300 300 299 299 300 301 302 303 304 304 304 304 304 305 306 306 306 307 308 309 310 311 311 311 311 311 313 314 315 317 317 316 313 312 312 310 310 311 311 310 311 311 311 311 312 314 315 316 318 318 318 317 317 316 316 317 318 319 320 318 317 317 317 316 315 315 316 317 316 315 316 316
298 297 297 297 298 298 299 299 299 299 298 298 300 301 301 300 300 299 300 300 299 301 302 303 303 302 303 304 305 305 306 306 306 307 308 310 311 311 310 309 311 313 315 316 317 317 315 312 311 311 310 309 311 311 311 311 311 311 312 312 314 316 316 318 319 319 317 317 318 317 315 317 320 322 321 321 322 322 318 315 315 317 317 316 316 316 317
298 298 297 298 298 298 298 299 299 299 299 298 300 301 301 301 300 300 300 299 299 301 302 302 302 302 302 304 304 304 304 304 304 306 308 309 309 310 309 309 311 314 315 317 318 317 315 313 311 311 311 311 312 312 312 313 313 313 313 314 317 317 316 317 318 318 317 318 319 317 317 321 326 326 324 323 323 323 320 315 314 316 316 316 317 316 316
298 298 297 298 298 298 298 299 299 299 299 299 300 301 301 301 300 300 301 300 299 300 301 301 302 302 302 303 303 303 303 303 303 305 306 307 308 309 308 308 311 313 315 317 318 317 315 314 312 312 313 314 316 315 313 314 315 316 316 317 318 318 317 317 318 318 318 318 318 316 319 325 327 327 326 323 321 322 320 315 315 318 318 316 316 316 317
298 298 297 297 298 298 298 299 299 299 299 299 299 301 301 301 301 301 301 300 300 300 301 302 302 301 301 302 302 303 303 303 303 304 304 306 307 307 306 307 311 312 314 316 317 317 316 317 316 316 316 316 317 317 315 316 317 318 319 319 318 318 317 318 318 318 318 318 317 316 320 325 326 326 325 322 321 321 318 317 322 328 327 320 316 316 317
298 298 297 297 298 298 298 299 299 299 299 299 299 301 301 301 301 301 301 301 300 300 302 302 302 301 302 302 302 303 303 303 303 303 303 305 306 305 306 309 310 311 313 315 315 316 317 318 319 319 318 318 319 317 317 317 317 317 319 319 319 319 318 318 318 318 318 318 317 317 320 324 326 325 322 320 321 319 319 324 330 331 331 329 325 322 320
298 297 297 297 298 298 299 299 299 299 299 299 299 300 301 301 301 301 301 301 301 301 301 302 302 302 302 302 302 303 303 303 302 302 302 304 304 304 308 310 309 309 313 314 314 315 316 317 318 318 318 319 320 319 318 318 317 317 318 318 318 319 319 318 318 317 317 318 317 317 320 324 327 325 322 321 323 323 325 330 331 328 329 332 330 328 328
297 297 297 297 298 298 299 299 299 299 299 299 299 300 301 301 301 302 301 301 301 301 302 302 302 302 302 302 302 302 303 303 302 302 302 303 303 304 307 308 308 309 312 313 314 314 314 315 316 316 317 319 320 319 320 319 317 316 317 318 319 319 318 318 318 318 318 318 319 320 322 325 327 326 325 326 326 327 329 332 331 329 330 330 329 330 331
297 297 297 297 298 298 299 299 299 299 299 299 299 300 301 301 301 301 301 301 301 301 301 302 302 302 302 302 302 303 302 302 302 302 302 302 303 304 305 306 308 309 310 311 313 313 312 312 313 314 316 318 318 319 320 318 318 319 319 317 318 319 320 319 319 319 318 318 320 321 323 325 327 327 328 330 329 328 330 331 330 330 330 330 331 333 333
297 297 298 298 298 298 299 299 299 299 299 299 299 300 300 301 301 301 301 302 302 301 302 302 302 302 303 304 303 303 302 302 302 302 302 302 302 303 304 306 308 309 310 311 311 310 310 311 311 312 315 317 318 319 319 318 319 320 320 318 318 319 320 320 320 320 319 320 321 321 322 325 327 326 328 329 328 327 328 329 329 329 330 331 332 334 335
297 297 298 298 298 298 298 299 299 299 299 299 299 299 300 300 300 300 301 301 301 301 301 302 302 303 304 304 303 302 302 302 302 302 302 302 302 302 303 305 306 307 309 310 309 308 308 309 310 312 314 317 318 319 319 319 319 320 319 319 320 321 320 320 320 321 320 321 322 322 322 325 327 326 326 327 326 325 326 327 328 329 329 331 332 332 333
297 298 298 298 298 298 299 299 299 299 299 299 299 299 300 300 300 300 301 301 301 300 301 302 302 303 304 303 303 303 302 302 302 302 302 303 302 302 303 304 304 304 306 307 307 307 307 307 309 311 313 315 317 319 319 319 319 319 319 320 322 322 320 319 320 321 322 322 323 323 323 324 325 325 324 325 325 325 326 326 327 327 327 329 331 332 332
297 298 298 298 298 299 299 299 300 299 299 299 299 299 300 300 300 300 300 301 301 301 301 301 302 303 303 302 302 302 302 302 302 302 302 303 303 303 303 304 303 304 305 305 306 306 306 307 308 309 311 313 316 318 318 318 318 318 319 320 320 320 319 319 319 320 322 323 325 324 323 323 324 323 323 324 324 324 324 325 326 326 325 326 328 330 331
297 298 298 299 299 299 300 300 299 299 299 299 299 299 300 299 299 300 300 300 301 301 301 301 302 302 302 301 302 303 302 302 302 302 302 303 303 303 304 304 304 304 305 305 306 306 306 307 308 309 310 313 314 315 316 317 318 319 320 320 319 319 320 321 321 320 321 322 323 324 324 324 324 323 323 323 324 323 323 323 324 324 324 325 325 326 328
298 298 299 299 299 300 300 299 299 299 299 299 299 299 299 299 300 300 300 300 300 301 301 300 300 300 301 302 302 303 302 302 302 303 303 303 303 303 304 304 304 304 305 306 306 307 307 308 309 310 310 312 314 315 316 317 317 318 319 319 318 319 321 321 321 322 322 321 322 323 324 324 323 323 323 323 324 324 322 322 322 323 324 324 324 325 326
298 299 299 299 300 300 299 299 299 299 298 298 299 299 300 300 300 300 300 301 301 300 300 299 299 300 301 302 302 302 302 303 303 303 304 304 304 304 305 304 304 304 305 306 306 306 307 308 308 308 309 311 313 314 314 314 315 316 317 318 318 318 320 320 320 321 322 323 323 323 323 323 323 323 323 322 323 323 323 323 322 321 322 322 323 324 325
298 299 299 300 299 299 299 299 299 298 298 298 299 300 300 301 301 300 300 300 300 300 299 298 298 299 300 301 302 303 303 303 303 304 304 305 305 305 305 305 305 305 305 306 306 307 307 307 307 308 309 310 311 312 312 313 314 315 316 317 318 318 319 319 319 321 322 322 323 323 322 322 323 324 323 322 322 322 324 324 322 322 321 321 321 322 324
299 300 300 299 299 299 299 299 298 298 297 298 299 299 300 301 301 300 299 299 299 299 298 298 299 299 299 301 302 302 303 304 304 305 305 305 306 306 306 306 306 305 305 306 307 307 307 308 308 309 309 311 312 312 313 313 314 315 316 317 317 318 318 318 318 321 322 321 321 322 322 322 323 322 323 323 322 322 323 323 322 322 323 321 320 321 322
300 300 299 299 299 299 299 298 298 298 298 299 299 299 300 300 300 299 298 298 299 299 298 298 299 299 299 301 302 302 303 304 304 305 305 306 306 306 307 307 306 306 306 306 306 307 308 308 308 309 309 310 312 312 313 313 314 315 315 316 316 316 316 317 318 319 321 320 321 323 323 323 322 322 322 323 322 322 322 321 321 322 323 322 322 322 322
299 299 299 299 299 299 298 298 298 298 298 298 298 299 299 298 298 298 298 298 299 299 298 298 299 299 299 300 301 303 304 304 304 305 305 305 306 306 306 306 306 307 307 307 307 307 308 308 309 309 309 310 310 312 312 313 313 314 314 315 315 316 316 316 317 317 319 321 322 323 323 324 324 322 322 322 322 321 321 320 320 321 322 322 322 322 321
300 300 300 299 299 299 298 298 298 297 297 298 299 299 299 298 298 298 298 299 300 299 298 298 298 299 299 300 301 303 304 303 303 304 304 305 306 306 305 305 306 307 307 307 307 307 308 308 308 309 310 310 311 312 313 313 313 313 313 314 314 315 315 315 315 317 320 321 321 322 322 323 323 321 321 321 321 320 320 319 319 320 320 321 322 321 322
300 300 300 299 299 297 297 297 297 298 299 299 300 300 299 299 298 298 298 300 300 299 298 299 298 299 300 300 301 302 303 302 303 304 304 304 306 305 305 305 305 306 307 308 308 308 308 308 308 309 310 310 311 311 312 312 312 312 312 313 314 315 315 315 316 319 320 320 320 321 321 321 321 321 321 321 320 319 320 319 318 319 320 321 321 321 322
300 300 299 298 297 297 298 299 299 299 300 300 300 300 299 298 298 298 298 299 300 299 299 299 299 299 300 300 301 302 302 302 303 304 303 304 305 305 305 304 305 306 307 308 308 308 309 309 309 309 309 310 310 311 311 312 312 312 312 313 313 315 315 315 318 320 320 319 320 320 320 320 321 321 320 320 319 319 319 319 318 319 320 321 321 321 321
299 298 297 297 298 298 299 300 300 300 300 300 300 299 298 298 298 299 299 299 299 300 299 299 298 299 300 300 301 301 302 302 303 303 303 304 304 304 304 304 305 305 306 307 308 309 309 309 310 309 309 310 310 311 311 312 312 312 312 313 313 314 314 315 318 319 319 319 320 320 319 320 321 320 320 319 319 319 318 318 318 319 320 320 320 321 321
298 297 297 299 299 299 298 300 301 300 299 298 298 298 299 299 298 298 299 299 299 299 299 298 299 300 300 300 301 302 302 302 303 303 303 303 303 303 304 304 305 305 305 306 307 308 308 309 309 309 310 310 310 311 311 311 311 312 312 313 313 313 314 314 317 319 318 318 319 319 319 320 320 320 319 319 318 318 318 318 318 318 319 319 319 319 319
297 298 299 299 298 298 299 300 299 298 298 298 298 298 298 299 298 298 298 298 298 299 299 299 299 300 301 301 302 302 302 302 302 303 303 303 303 303 304 304 304 305 305 305 307 307 308 308 309 309 309 310 310 311 311 311 311 311 312 312 312 313 314 314 316 318 319 319 319 318 318 319 320 319 318 318 317 317 317 317 317 317 317 317 317 317 317
297 299 299 299 298 298 299 299 298 297 298 299 299 298 298 298 298 299 299 299 299 299 300 300 301 302 302 302 302 302 302 303 302 303 303 303 303 303 303 304 304 304 305 305 306 307 307 307 308 308 308 309 310 310 310 310 311 311 311 312 313 313 313 314 315 316 318 319 319 318 318 318 318 318 317 317 317 317 316 316 316 316 316 316 316 315 315
299 299 299 298 298 298 298 298 298 298 298 297 298 298 298 298 299 299 299 299 300 300 300 301 302 302 302 302 302 302 302 302 302 302 302 303 302 303 303 304 304 304 305 306 306 306 306 306 307 307 308 308 309 310 309 310 311 311 311 312 312 313 313 313 314 315 317 318 318 318 317 317 317 317 317 317 316 317 316 316 316 316 315 315 315 315 315
299 299 298 298 298 298 298 298 298 298 298 297 298 298 298 298 299 299 299 299 300 300 301 302 302 301 301 301 301 301 301 302 302 301 301 302 302 303 303 303 304 304 305 306 305 305 306 306 306 307 308 309 310 309 308 309 310 310 312 313 314 314 314 313 314 315 317 317 318 318 318 317 317 317 317 316 316 317 317 316 316 316 316 315 315 314 314
297 297 297 297 298 298 298 298 298 298 298 298 298 299 299 298 299 299 299 300 300 300 300 301 301 300 300 301 300 301 301 301 301 300 301 302 302 302 303 303 304 305 306 305 305 306 307 306 307 308 308 309 310 310 310 310 311 311 314 316 316 315 313 313 315 317 318 318 318 317 317 317 317 317 317 317 317 317 317 317 316 316 315 314 314 314 313
297 297 297 297 297 297 297 298 298 298 298 298 299 299 300 299 299 300 300 300 300 300 300 300 299 299 299 300 300 300 300 300 301 301 302 302 301 302 303 304 304 305 305 305 305 306 307 307 308 309 308 309 309 309 310 311 311 312 315 317 317 316 314 315 317 318 317 317 318 317 316 317 318 317 317 318 318 317 317 316 315 315 314 314 314 313 312
297 297 296 296 297 297 297 297 298 299 299 299 299 299 300 300 300 300 300 299 299 299 299 299 299 299 299 299 299 300 300 300 301 301 301 301 302 303 303 304 304 305 305 305 306 306 307 307 308 308 308 309 309 309 310 312 312 313 315 317 318 317 317 318 318 317 316 316 317 317 317 317 318 317 317 318 318 316 316 315 314 314 314 314 313 313 312
297 297 297 297 297 297 297 298 298 299 299 299 299 299 300 299 299 299 299 299 298 298 299 299 298 298 299 299 299 300 300 300 301 301 301 302 303 303 303 304 305 305 305 306 306 307 307 307 308 308 309 309 309 309 310 312 313 312 314 317 318 317 317 317 317 316 315 315 315 316 316 316 317 316 316 317 316 315 314 314 313 313 314 313 313 312 312
296 296 296 297 297 297 297 298 299 299 299 299 299 299 299 299 299 299 299 298 298 298 298 299 298 299 299 299 299 300 300 300 301 301 301 302 302 303 303 304 305 305 306 306 307 307 308 309 308 308 308 308 308 309 310 312 313 314 315 317 317 316 316 317 317 316 315 316 317 316 316 317 317 316 315 315 315 314 314 313 313 313 313 312 312 311 311
296 296 296 297 297 298 298 299 299 299 299 299 299 299 298 298 298 298 298 298 298 298 299 298 298 299 299 299 299 300 300 300 301 302 301 302 303 303 304 305 306 305 305 306 307 308 308 307 306 306 307 308 308 309 310 311 313 313 314 316 316 316 315 316 316 315 315 315 316 316 316 316 316 316 315 314 314 313 313 312 312 312 311 311 311 310 310
296 297 297 297 297 298 298 298 299 298 298 299 298 298 298 298 298 298 298 298 298 298 298 298 298 298 298 299 300 300 300 301 302 303 303 303 304 304 305 306 306 306 307 307 307 308 308 307 306 306 307 308 308 309 309 311 312 313 314 316 316 316 316 315 314 314 314 314 315 316 315 314 314 315 314 313 312 312 312 311 311 310 310 310 309 310 309
296 296 296 297 297 298 298 298 298 298 298 298 298 298 298 298 298 298 298 298 298 298 298 298 298 298 299 299 300 300 301 302 302 302 302 303 304 305 305 306 306 307 308 307 307 306 307 307 307 306 306 308 308 308 309 310 311 312 314 314 314 314 315 314 313 313 314 315 315 315 314 313 313 312 312 311 310 310 310 310 309 309 310 309 309 309 310
295 295 296 297 297 298 298 298 298 298 298 298 298 298 298 298 298 298 298 298 297 297 298 298 298 299 299 299 300 301 301 301 301 302 302 303 303 304 305 306 306 307 307 306 304 304 305 306 306 306 306 308 308 308 308 308 310 311 312 313 313 313 314 314 313 314 315 314 313 313 312 312 311 310 310 310 310 309 309 309 309 309 309 309 309 309 310
295 296 296 297 297 297 297 297 297 297 298 298 298 298 298 298 298 298 298 298 297 297 298 298 298 298 299 299 300 300 300 300 301 302 302 302 303 304 305 305 305 305 304 303 302 302 303 304 305 306 306 307 307 307 307 308 309 311 312 314 314 314 313 313 313 314 314 313 312 311 311 310 309 309 309 309 309 309 309 309 310 309 309 309 309 309 309
Wind_Speed
21 22 21 22 24 26 29 32 34 36 33 23 17 13 6 5 4 6 8 3 2 5 6 5 3 4 9 13 14 13 12 12 14 16 10 3 1 2 3 3 4 5 6 8 8 6 4 3 1 2 5 4 0 3 10 10 9 7 6 7 7 2 3 8 9 8 11 14 16 16 17 18 14 12 13 14 14 13 10 8 8 8 10 11 9 8 5
21 22 21 21 24 26 28 30 33 32 27 21 17 11 4 4 4 3 8 5 2 5 6 7 7 9 12 15 16 13 10 11 14 16 14 6 1 2 4 2 3 5 6 8 9 7 4 2 0 3 5 4 3 7 12 9 8 5 3 2 4 2 4 7 9 8 10 12 13 13 14 13 10 11 14 16 18 17 12 8 6 7 10 9 7 7 6
21 22 19 20 23 25 27 30 33 29 22 18 14 8 5 5 5 0 6 7 4 5 4 6 8 11 15 16 16 14 10 11 14 15 14 7 2 2 4 2 3 5 8 9 10 8 2 1 2 4 4 4 4 8 11 9 9 6 4 7 2 0 5 4 6 8 9 9 9 10 10 10 9 13 17 17 18 18 13 8 7 8 10 10 7 4 7
20 19 18 19 22 25 27 30 33 26 17 17 15 10 7 5 3 5 2 4 4 6 5 5 7 10 13 13 13 16 14 13 13 12 11 8 2 4 3 3 2 4 6 7 9 6 4 2 2 4 4 3 5 8 10 11 11 4 2 7 5 2 4 4 3 3 7 10 12 13 11 11 12 17 19 17 17 18 15 9 8 8 9 10 7 4 8
18 17 17 19 21 24 26 29 32 25 15 16 16 10 6 4 3 6 6 3 4 4 3 5 8 10 12 10 11 16 17 15 13 10 8 10 7 2 5 2 1 3 4 5 7 5 4 2 3 5 5 3 7 9 10 12 10 2 2 7 6 3 3 3 4 6 5 5 11 18 17 14 15 17 19 19 19 19 17 13 11 9 7 9 9 7 8
17 15 16 18 19 22 25 27 31 24 15 17 16 7 2 5 3 4 6 4 5 7 8 9 11 13 12 9 12 16 18 16 14 10 8 10 10 4 1 4 5 7 7 5 5 4 4 2 4 4 4 4 8 10 10 11 10 6 6 8 5 4 4 4 5 6 4 3 3 13 17 16 16 16 17 19 20 19 18 16 14 11 8 9 11 10 8
16 15 15 16 18 20 22 26 29 23 16 15 13 6 4 5 4 4 6 5 8 10 11 12 13 13 10 8 11 15 17 17 14 12 12 12 11 9 7 6 4 5 9 6 4 4 3 4 6 5 4 5 7 8 8 8 10 9 8 6 5 5 4 3 5 5 4 4 5 8 13 15 17 18 17 19 19 18 17 15 14 14 10 8 9 11 10
15 14 14 15 17 19 20 24 26 24 19 15 10 8 7 4 4 5 6 7 9 10 10 11 11 10 8 8 11 14 16 18 16 14 13 14 12 12 12 15 13 5 7 7 6 5 2 2 5 5 6 6 5 6 5 5 8 9 7 5 4 3 3 4 4 3 5 8 8 8 10 12 14 17 18 18 18 17 17 15 14 13 12 11 11 11 12
14 13 14 15 16 18 19 21 23 23 21 15 8 8 9 7 4 5 6 7 8 8 10 10 9 8 8 9 12 14 17 19 18 16 11 10 13 14 16 19 14 2 7 6 6 8 7 6 4 5 7 6 4 4 3 3 6 8 7 4 2 3 4 5 4 4 4 7 7 8 8 9 12 15 17 18 18 16 15 15 14 14 14 14 14 11 9
14 12 13 15 15 16 16 18 21 21 20 15 8 8 11 9 6 5 6 7 8 9 9 9 8 7 8 12 14 15 18 19 18 14 8 9 13 15 17 18 11 1 3 4 6 8 9 9 6 5 7 7 6 5 4 5 5 6 6 4 3 4 5 3 3 3 3 5 5 6 8 9 10 12 15 16 17 16 15 15 16 17 15 13 11 10 7
13 11 13 13 12 13 14 15 18 19 18 15 10 9 12 11 7 6 6 6 7 9 8 8 9 8 11 17 17 16 19 20 18 13 9 12 17 16 15 16 10 4 6 9 8 7 7 8 7 6 7 9 9 7 6 8 6 6 6 4 4 5 6 4 3 3 4 4 3 3 7 8 6 8 14 16 15 16 16 15 16 17 15 11 10 13 12
12 11 12 10 9 11 13 13 15 16 15 13 10 8 11 12 9 6 5 6 8 8 8 8 10 12 15 18 18 17 19 20 18 16 14 14 15 15 14 14 12 9 10 11 8 4 5 7 8 9 9 10 10 9 9 9 6 7 7 5 4 5 5 4 5 4 5 5 3 4 7 5 1 3 10 15 15 15 15 14 15 16 16 14 15 17 16
12 13 11 8 7 9 11 12 13 13 13 13 11 8 8 10 10 6 5 7 7 7 9 10 12 15 18 19 19 18 18 18 17 16 14 12 12 13 13 13 13 12 12 11 8 3 6 7 6 8 9 9 9 10 10 10 7 8 7 4 3 4 4 5 6 6 5 4 4 4 1 3 3 1 5 11 14 15 13 12 14 16 16 16 18 18 16
12 13 11 8 8 9 10 11 12 12 12 12 12 8 5 7 8 7 5 5 7 9 10 9 11 16 19 20 19 17 16 17 16 14 13 10 10 12 13 13 13 13 10 9 7 4 4 4 5 5 6 6 6 7 8 8 7 7 7 4 1 2 3 4 5 5 6 4 3 4 3 1 4 3 3 6 8 11 12 10 11 14 15 16 17 17 15
11 13 11 8 8 9 10 11 12 11 10 11 12 11 7 4 6 7 6 5 8 9 7 7 12 18 19 18 16 14 13 13 14 14 13 11 10 11 12 14 14 12 9 6 4 3 4 4 5 5 5 6 5 5 6 6 6 7 7 4 2 3 2 4 4 5 6 5 4 5 5 2 3 3 1 1 3 5 9 9 8 11 15 16 16 16 15
11 13 12 9 8 9 9 11 12 11 9 10 12 12 9 4 3 7 7 5 5 6 7 10 15 16 14 13 13 13 10 10 12 12 10 11 14 13 14 15 14 12 9 5 2 3 5 6 4 4 5 6 5 5 5 5 5 6 7 5 3 3 2 5 5 6 6 5 5 4 1 1 2 3 2 1 3 2 6 8 8 10 15 16 15 15 15
11 13 13 10 9 10 10 11 12 11 10 11 12 13 10 4 3 7 8 5 5 8 9 11 13 11 9 9 10 10 8 8 10 9 8 12 15 14 15 16 13 11 11 5 2 2 4 7 5 3 4 5 5 4 5 5 5 6 7 6 6 5 4 5 6 6 6 5 6 3 2 2 3 6 4 1 2 4 7 7 5 5 11 15 15 14 13
12 13 13 10 9 10 10 10 11 11 11 11 12 13 11 5 3 6 7 6 6 7 8 11 13 11 9 9 10 9 8 9 9 8 9 11 10 13 17 14 9 10 12 7 3 3 4 7 4 2 3 5 4 3 4 5 6 6 6 6 6 6 5 5 6 6 6 6 6 3 2 3 4 8 5 1 4 7 8 5 2 6 5 8 12 13 13
13 14 13 11 10 11 10 9 10 11 11 11 11 13 11 6 5 7 8 7 6 7 11 15 15 12 10 10 10 8 8 9 8 8 9 7 9 17 18 8 4 9 9 7 6 5 4 6 4 1 1 4 4 3 2 4 5 5 6 7 6 5 4 5 6 6 6 5 5 3 2 3 6 9 3 2 5 5 3 1 5 8 7 3 1 6 8
13 14 13 11 11 10 10 10 11 11 10 10 11 13 14 10 8 9 9 7 7 10 13 12 11 12 13 12 11 10 9 9 7 8 9 7 11 16 12 3 5 9 7 6 7 5 4 7 7 3 2 2 3 5 3 3 5 5 5 5 4 2 3 5 5 4 5 5 5 4 1 2 8 9 2 2 1 2 4 5 5 5 4 3 2 1 3
14 14 13 12 11 10 10 11 11 10 10 10 10 13 15 12 8 9 11 10 8 8 9 9 14 19 18 16 16 15 13 12 10 9 8 8 9 9 7 6 8 7 5 6 6 5 5 7 6 4 4 4 4 4 2 3 6 7 5 3 1 2 2 4 3 3 3 3 3 2 1 3 7 7 2 2 3 4 6 5 4 4 4 1 2 2 3
13 14 13 12 11 11 11 11 11 11 11 10 11 13 14 12 10 11 13 13 11 11 16 21 24 25 24 22 20 18 17 17 15 12 9 8 7 6 6 9 9 5 4 5 5 4 5 6 6 6 6 5 4 5 5 4 3 2 3 2 2 3 3 2 2 3 4 5 3 1 1 2 4 4 4 5 4 3 6 6 3 4 5 3 2 3 4
13 12 12 11 11 12 12 11 11 12 11 11 11 13 14 14 13 13 14 14 13 15 22 26 23 20 21 19 15 14 15 16 16 14 11 8 7 7 7 7 7 5 2 3 4 6 6 6 6 6 6 4 4 7 7 4 1 2 4 4 3 4 4 2 2 4 5 5 6 3 1 2 3 3 3 5 6 5 6 6 5 5 6 4 4 5 5
13 13 12 10 11 12 12 12 12 12 12 12 11 13 15 15 14 14 14 12 9 10 14 14 10 10 13 11 8 9 12 14 16 15 13 10 7 7 6 4 6 6 5 5 7 7 7 6 6 6 6 5 4 5 5 2 1 3 5 5 2 3 3 3 4 6 4 2 1 2 2 3 3 3 3 5 7 7 6 6 6 6 6 7 6 6 5
13 13 12 11 11 11 12 12 13 13 13 13 12 13 14 15 13 13 13 10 8 8 8 8 8 11 13 13 13 14 14 13 14 14 14 15 13 10 10 11 11 10 9 9 8 7 6 6 6 6 7 6 4 3 2 2 5 6 5 4 2 1 2 4 5 5 3 2 2 2 2 2 3 4 5 6 6 7 6 7 8 8 8 9 9 7 6
14 14 12 11 11 12 12 13 13 13 13 13 12 13 15 16 15 13 13 12 9 7 8 8 9 10 14 17 19 17 13 12 13 13 15 18 19 19 18 16 14 12 10 8 7 7 7 6 6 7 7 5 4 4 4 5 7 8 7 6 5 5 6 6 5 4 1 5 3 0 3 1 1 3 5 5 6 6 7 8 9 10 11 11 11 10 9
14 14 12 12 12 12 13 13 13 14 14 14 13 14 17 18 15 13 13 11 7 5 7 8 8 12 19 24 22 15 11 12 14 14 16 17 19 21 20 15 11 10 9 7 7 6 6 6 7 8 8 6 6 7 7 7 7 7 8 6 5 6 7 7 6 4 1 3 4 3 1 0 1 2 4 6 6 6 7 9 10 10 10 11 11 11 10
15 13 13 12 12 12 13 12 13 13 13 14 15 17 19 18 16 14 13 11 8 7 7 8 11 15 19 20 17 14 13 14 14 15 15 16 18 19 18 14 11 9 8 8 7 6 6 7 7 7 6 6 6 7 7 7 6 6 7 6 3 3 4 5 7 4 0 2 3 3 2 2 2 3 6 8 7 5 7 9 10 9 9 9 9 9 10
14 14 13 12 12 13 12 12 12 12 12 13 15 17 16 13 10 10 11 11 9 8 8 9 11 11 11 14 18 18 16 14 14 15 16 17 17 17 15 12 11 9 8 8 7 7 7 7 7 7 7 6 6 6 7 7 6 6 6 6 6 6 6 8 9 7 1 4 5 3 4 4 1 2 3 5 8 6 7 9 8 8 8 8 8 7 7
14 14 13 12 12 12 12 11 11 11 11 13 13 12 9 3 3 3 6 7 6 6 7 7 8 7 9 14 17 16 15 14 14 15 16 15 14 14 13 12 10 8 8 8 7 7 7 7 6 8 9 8 6 6 6 7 7 7 5 3 4 7 10 9 7 7 4 1 5 6 6 6 2 3 4 3 5 4 5 7 8 7 7 7 7 5 5
14 13 12 12 12 12 12 12 11 10 11 11 9 6 4 0 4 4 5 5 5 7 6 6 8 8 9 10 12 13 15 15 14 14 15 13 11 12 13 11 8 7 7 7 7 7 7 7 7 8 9 8 6 6 7 8 8 8 7 3 1 4 8 8 6 6 6 4 2 6 6 4 4 4 3 2 2 0 3 6 7 6 5 5 6 7 5
14 13 13 13 12 12 12 12 11 11 11 12 11 10 11 10 6 4 7 7 8 8 5 5 7 7 5 6 10 15 15 13 11 11 10 9 8 8 9 9 7 7 8 7 6 7 7 7 8 9 9 7 5 6 8 9 8 9 10 8 5 4 6 7 7 6 5 5 2 3 5 5 6 5 3 1 1 1 3 5 5 2 1 2 5 5 4
14 13 13 12 11 12 12 13 13 13 13 14 17 19 20 17 13 11 12 12 9 7 4 3 6 6 5 7 11 12 9 7 8 8 6 5 5 5 6 7 7 7 7 7 6 5 6 7 8 8 8 7 6 6 8 9 11 12 12 10 8 7 8 8 7 6 5 4 2 1 3 4 5 6 4 3 2 2 2 3 3 2 2 3 3 2 2
14 13 12 12 12 13 14 14 14 13 13 13 13 12 10 9 7 7 9 9 7 5 4 3 4 6 7 8 8 6 8 8 7 6 6 6 6 6 6 6 6 6 7 7 7 6 6 7 7 7 8 7 7 6 8 11 13 13 12 10 9 8 9 8 7 5 4 3 1 2 3 2 3 5 5 5 4 2 1 2 3 3 3 3 2 2 2
13 13 12 13 14 14 14 13 13 13 13 12 9 5 3 4 6 8 8 6 5 4 3 3 4 6 7 7 6 6 9 9 8 6 6 7 7 7 6 6 6 6 6 6 6 7 7 7 7 7 7 7 7 7 8 11 13 13 11 10 9 8 9 8 4 1 1 3 4 4 3 3 4 5 5 5 4 2 1 1 2 2 3 3 3 3 2
13 12 11 12 13 12 12 11 11 11 8 6 3 4 5 6 8 9 9 9 8 6 4 4 5 6 7 7 6 6 8 8 7 6 6 6 6 6 5 5 7 6 4 5 7 8 7 7 7 7 7 7 8 9 8 9 12 13 12 11 9 8 8 6 1 4 3 5 6 5 5 4 5 4 3 3 3 2 2 2 2 1 2 4 4 4 4
11 9 9 11 9 9 10 9 8 8 5 4 3 6 8 8 8 10 10 9 9 8 5 5 7 7 7 7 5 5 6 6 6 6 6 5 5 5 5 6 6 5 5 6 7 7 7 7 8 8 8 8 9 11 10 10 11 12 11 11 9 7 7 5 4 9 3 6 7 7 6 5 4 3 2 3 2 1 1 2 2 2 4 5 5 4 5
7 6 7 8 7 7 6 4 4 5 5 7 6 7 7 6 6 6 5 5 6 6 5 6 8 7 6 6 6 5 6 6 6 6 5 5 5 5 5 5 4 4 5 7 6 5 6 7 7 8 9 10 11 13 12 10 11 11 10 10 9 7 7 5 5 8 6 6 8 8 6 5 5 4 2 2 2 2 2 3 3 4 5 5 5 5 6
4 4 6 7 6 3 1 2 2 2 6 7 6 5 4 4 4 3 3 3 4 4 4 6 7 6 6 7 7 6 5 5 7 7 6 5 5 5 5 4 3 4 6 7 4 2 4 6 6 7 9 10 11 13 12 11 11 11 10 10 10 8 6 5 5 7 7 6 6 6 5 3 3 4 3 3 3 3 4 4 4 5 5 5 6 6 6
6 6 6 5 5 3 1 4 4 4 5 6 5 3 2 3 3 3 2 3 4 4 3 4 5 5 6 7 7 6 4 4 6 7 7 6 5 4 5 5 4 4 7 7 3 2 4 6 5 7 8 8 8 9 9 9 10 10 9 8 8 7 7 6 6 6 7 5 2 4 2 1 2 3 4 4 4 4 5 4 4 5 6 6 6 6 6
8 6 4 3 4 4 4 5 4 4 3 3 3 3 3 3 3 2 3 4 4 3 3 3 4 4 4 5 7 6 5 4 5 5 6 6 4 4 6 6 4 4 6 6 4 4 5 6 6 7 7 7 7 7 6 7 8 8 7 6 5 6 8 8 8 7 7 5 5 6 2 3 3 3 5 5 5 5 5 5 6 6 6 6 6 6 6
7 3 1 2 4 4 5 5 4 3 3 3 3 3 4 3 3 3 3 3 3 2 1 2 4 5 5 6 6 5 5 5 4 4 5 6 4 4 6 5 3 4 6 5 4 4 5 6 7 6 4 6 7 6 5 6 7 6 4 4 4 5 6 8 9 9 8 7 7 7 5 6 6 5 7 7 5 5 5 6 6 6 7 7 6 6 6
7 4 3 4 4 5 5 4 3 3 2 2 2 3 4 3 3 4 3 2 2 3 2 2 3 5 6 6 5 5 6 6 4 3 5 5 4 4 5 4 4 5 4 4 5 6 6 6 6 4 5 9 10 9 8 8 8 6 3 2 3 4 6 7 7 6 7 5 4 5 5 5 7 8 8 6 6 7 6 7 7 7 7 6 6 6 6
5 4 3 3 3 3 3 2 2 2 3 3 4 4 4 4 4 4 2 1 1 3 4 4 5 6 6 5 5 5 6 5 2 2 4 5 4 4 4 4 4 4 4 4 6 6 6 7 5 2 6 8 11 13 13 11 9 8 6 3 3 5 6 6 7 9 10 6 1 1 1 2 5 7 7 6 8 8 8 8 8 7 6 6 5 6 5
5 4 3 2 2 2 2 2 2 3 4 4 5 5 5 4 4 3 1 0 2 4 5 5 5 6 6 5 4 4 4 3 3 3 4 4 4 5 5 4 4 5 5 6 6 6 6 6 4 3 6 9 11 14 14 11 9 9 7 4 5 6 8 9 9 10 10 6 2 3 2 3 6 6 7 8 9 9 8 7 8 7 6 5 5 4 4
4 3 3 3 3 3 3 3 3 3 4 4 4 4 4 3 3 3 3 3 4 6 6 5 6 7 7 5 5 4 4 4 4 4 4 4 5 4 4 4 4 5 5 5 6 6 6 5 3 5 9 11 12 14 15 11 8 8 8 5 6 8 9 10 10 10 9 6 5 5 4 6 7 6 8 8 9 9 9 8 6 5 4 3 3 2 3
4 3 3 3 3 3 4 4 4 4 3 3 3 3 3 3 4 4 5 4 4 6 6 6 6 7 6 5 5 5 4 4 4 5 4 4 4 4 4 4 4 4 5 6 7 6 4 4 6 8 11 13 13 14 15 12 8 8 9 6 6 7 8 9 10 10 9 7 5 2 4 8 8 8 8 8 8 9 9 8 7 5 3 2 1 1 0
3 3 3 3 3 3 4 4 4 4 4 3 2 2 3 4 4 4 4 3 4 6 6 6 6 6 5 5 5 6 5 4 5 5 4 3 3 3 3 4 4 5 4 5 5 5 5 7 8 10 12 13 13 14 15 12 9 9 10 7 6 7 7 8 10 10 9 8 5 4 6 7 8 9 8 7 8 8 7 7 6 4 2 1 0 0 0
3 3 3 3 3 4 4 4 5 5 4 3 3 3 3 4 5 4 4 4 5 6 6 5 5 6 5 4 5 6 5 4 3 3 3 3 3 3 3 4 6 5 2 2 5 7 7 7 9 11 13 13 12 13 14 13 10 9 8 5 4 7 8 9 10 10 8 7 7 7 8 9 9 8 7 6 6 5 4 3 2 2 1 1 1 2 1
3 3 3 4 4 4 4 4 5 5 4 3 3 3 3 4 4 3 3 3 4 5 5 5 5 4 4 4 5 5 4 2 2 3 5 4 4 4 4 5 6 4 3 4 7 8 7 6 9 12 13 13 12 12 13 13 11 9 7 2 4 5 6 10 11 9 9 9 9 9 9 9 7 7 6 5 4 4 3 2 2 3 4 3 3 4 3
3 3 4 5 5 5 4 3 4 5 4 3 3 2 2 4 4 3 3 3 4 5 5 4 3 3 4 4 4 4 3 2 3 5 6 5 3 4 6 6 5 5 6 7 9 9 8 8 9 11 12 13 12 13 13 13 11 10 7 2 3 3 5 9 11 9 9 10 10 9 7 7 7 7 7 6 5 5 4 3 4 5 5 5 5 5 5
3 3 4 5 5 5 5 5 4 4 4 3 3 3 3 4 4 4 3 3 5 5 4 4 3 3 4 4 3 3 4 4 5 6 6 4 3 4 6 7 7 7 8 10 10 9 8 9 10 10 12 13 13 13 13 12 11 10 9 6 8 8 7 8 9 9 9 9 9 8 7 7 6 6 6 6 6 5 4 5 5 6 6 6 6 7 6
Wind_Direction
347 346 342 345 348 349 353 356 357 357 356 354 340 321 297 299 349 103 127 141 219 248 278 301 282 289 318 325 326 323 316 313 322 331 336 350 355 284 257 242 261 268 266 282 293 284 280 307 348 229 216 196 106 182 187 204 226 231 240 215 185 177 238 189 170 174 175 179 188 197 210 217 211 204 205 202 201 204 210 207 195 203 205 197 203 205 159
346 345 340 344 349 351 353 356 357 359 2 354 330 315 322 311 297 137 138 149 230 272 312 333 322 318 323 323 324 322 315 320 329 335 336 341 75 287 294 261 253 273 275 280 289 291 296 331 41 224 218 175 145 184 188 205 231 223 267 264 143 125 248 191 164 174 175 175 185 190 201 212 211 206 206 207 206 206 216 222 204 211 212 198 200 202 158
346 343 341 346 350 351 353 356 358 360 5 360 334 304 308 302 287 314 142 163 226 280 303 315 311 321 325 323 323 322 321 335 342 338 334 345 121 195 293 293 231 271 287 282 282 285 270 167 237 229 203 157 162 193 189 201 225 221 301 320 348 18 272 227 172 176 169 174 187 182 188 202 209 212 209 206 205 206 214 218 204 211 208 194 199 192 139
347 345 345 348 350 352 353 356 358 359 6 3 339 302 298 314 320 343 357 185 249 268 249 285 315 328 328 321 321 326 330 340 348 342 338 355 61 181 239 288 242 262 283 283 282 266 199 192 241 214 203 171 177 196 189 200 222 221 342 297 289 294 281 294 298 211 176 183 191 185 188 196 199 206 207 205 207 207 208 212 208 207 204 199 194 142 132
347 349 350 349 350 353 353 357 359 1 9 1 335 295 289 332 330 343 345 301 285 298 300 333 338 325 320 319 321 328 331 336 344 346 343 349 346 207 184 195 245 256 260 278 285 261 209 209 213 208 225 195 169 184 189 200 218 255 319 253 259 288 244 224 299 283 255 218 193 186 189 193 196 203 203 202 210 212 209 212 214 210 209 206 189 143 139
343 348 353 350 351 354 354 357 1 2 8 357 337 307 351 359 329 5 6 310 293 324 328 330 329 318 315 318 321 327 332 336 344 340 327 335 345 351 181 200 223 233 240 275 279 224 173 176 212 229 240 187 163 175 192 202 206 225 254 240 241 289 264 213 237 258 273 317 220 194 191 190 193 201 202 202 209 214 213 212 210 209 211 207 191 168 154
341 345 352 352 353 355 355 358 2 6 8 360 353 0 31 5 331 8 14 318 294 305 312 315 319 321 328 333 329 331 331 333 338 333 326 330 346 359 339 308 298 234 226 248 261 215 164 173 212 236 242 206 176 172 191 206 199 207 237 248 246 266 281 267 257 244 213 217 229 215 204 198 197 199 201 202 203 208 215 216 211 210 218 230 218 196 190
339 341 347 351 353 355 356 358 4 10 8 6 24 35 20 9 352 346 341 318 297 297 314 322 318 327 350 349 336 330 327 329 332 330 325 321 332 350 331 319 337 336 214 218 238 249 272 232 210 218 226 220 199 180 189 206 198 202 225 249 253 254 298 301 278 260 229 219 219 221 214 210 208 202 198 201 202 205 213 216 216 217 221 241 251 224 207
337 340 344 347 351 354 357 359 5 13 11 7 27 36 16 7 357 336 321 313 304 305 324 332 327 338 355 346 335 327 322 325 326 323 318 307 321 337 325 320 335 336 198 220 255 266 274 268 242 224 224 228 225 211 213 217 201 202 224 246 238 234 274 283 256 235 219 202 207 225 226 224 224 213 203 201 201 203 209 210 212 217 219 228 239 232 212
333 337 342 347 351 354 357 359 4 13 17 14 17 22 11 360 348 341 318 300 302 313 323 334 339 347 345 336 331 322 316 320 323 324 320 307 319 329 324 326 339 177 199 313 306 280 262 250 252 253 241 244 254 254 267 269 224 196 215 242 245 249 268 283 279 277 241 192 198 225 225 221 224 219 212 208 203 202 205 206 207 213 221 224 227 230 222
330 330 339 348 355 356 355 359 2 7 15 15 11 9 7 357 337 331 324 306 310 321 328 338 346 343 334 331 330 322 318 322 325 324 317 313 323 331 328 331 343 358 355 345 317 277 249 237 244 257 254 252 254 249 260 269 239 193 206 230 250 277 294 303 298 288 262 246 250 236 222 218 211 202 205 210 212 206 204 206 204 206 216 222 230 243 244
327 323 331 344 356 354 352 354 357 2 6 1 353 358 4 353 334 330 333 314 307 320 329 331 336 338 334 331 328 322 320 321 318 313 309 312 323 330 332 338 348 354 348 338 322 258 212 218 233 244 245 245 242 232 237 247 218 187 207 239 271 299 311 305 295 286 276 281 281 240 221 207 152 170 194 203 211 211 210 211 206 205 211 217 230 246 251
323 318 318 331 345 346 347 348 350 355 357 350 343 346 352 346 341 345 340 314 307 324 325 318 329 340 337 330 325 321 320 319 315 313 312 315 325 332 339 347 347 341 334 329 321 258 205 201 213 228 226 224 230 227 226 228 209 192 207 241 301 322 314 302 299 295 295 293 256 242 230 116 118 154 202 201 202 206 212 215 211 209 209 213 224 239 248
316 315 313 321 333 336 339 343 344 345 347 344 337 329 329 344 347 346 334 317 311 312 309 313 332 339 334 328 325 325 327 328 329 328 323 323 333 337 346 354 346 335 333 328 318 286 232 197 184 197 197 194 211 218 214 217 212 203 213 234 312 1 321 311 312 297 299 308 268 265 298 192 156 149 201 204 204 206 207 214 220 215 212 216 224 232 239
303 311 312 312 320 325 327 333 337 337 338 337 330 321 313 322 335 330 325 320 309 306 317 338 339 334 330 328 330 333 335 338 338 331 325 332 340 338 350 358 343 331 338 339 318 284 262 223 176 169 179 179 190 200 197 206 208 198 209 232 78 72 309 297 306 294 300 313 287 263 261 213 127 75 47 295 314 244 210 214 226 217 216 223 224 226 231
292 307 308 301 307 312 312 322 330 331 331 330 325 321 314 291 298 314 316 314 300 300 324 336 332 328 323 323 333 339 338 339 337 328 326 337 337 337 352 354 336 334 356 356 284 276 274 243 193 178 192 181 178 197 191 192 207 195 189 185 142 134 251 269 270 277 286 294 286 275 257 100 48 3 336 311 325 280 211 220 227 212 213 222 224 224 225
287 301 301 293 297 303 301 311 323 327 329 327 322 320 314 290 281 305 306 303 294 284 292 315 326 329 323 322 331 335 333 331 330 324 322 325 328 338 347 341 332 348 6 357 251 281 281 250 221 207 213 190 176 196 197 199 214 193 176 184 196 201 233 258 262 272 282 284 282 271 110 72 332 316 321 303 232 210 203 212 221 216 215 216 218 222 219
283 296 298 288 288 297 300 306 318 324 327 326 318 312 307 289 263 288 294 298 297 280 285 312 320 316 313 316 316 318 325 323 319 319 311 310 328 343 334 326 337 1 2 352 335 344 305 274 249 193 243 247 223 192 191 208 215 192 182 212 224 209 219 250 260 269 280 280 275 259 119 76 315 301 311 358 175 189 198 206 316 328 276 213 206 214 214
284 295 296 283 280 292 298 304 315 321 323 327 321 309 306 294 247 256 278 294 295 285 294 305 303 297 304 309 302 305 318 314 313 324 317 314 343 337 320 306 359 360 354 356 356 354 328 315 326 16 267 279 274 262 229 219 220 194 187 214 224 208 223 245 245 254 271 273 266 259 117 62 321 309 305 174 179 181 186 311 329 325 334 12 178 207 207
287 293 291 279 275 284 292 301 311 315 316 324 322 308 305 300 268 247 254 274 293 294 292 292 292 298 304 300 291 295 306 306 312 322 312 312 336 333 323 341 10 347 348 1 357 352 339 335 340 343 347 339 287 277 294 291 276 261 227 220 212 188 236 255 247 254 269 261 259 263 136 22 333 329 321 176 209 334 345 337 326 322 346 22 41 185 201
289 290 284 275 272 280 290 298 307 310 308 313 315 307 302 301 287 262 254 258 276 291 293 297 304 304 298 290 285 284 281 285 299 312 309 308 319 325 327 334 333 335 351 349 341 346 340 334 338 333 322 318 292 280 297 291 276 268 255 246 144 127 233 273 298 328 318 297 291 310 326 334 340 343 349 28 18 337 311 313 331 347 341 296 151 152 202
289 285 278 272 271 278 287 293 301 303 301 304 307 302 297 297 298 292 278 267 261 267 281 290 293 290 283 275 271 265 262 270 285 294 297 297 300 300 297 301 309 330 359 338 324 333 335 325 327 330 322 316 318 312 292 271 276 282 262 251 202 177 207 260 294 283 284 304 338 48 185 316 5 7 339 358 28 350 323 332 351 355 344 344 104 134 163
286 278 275 275 275 279 284 288 294 296 296 301 302 297 296 298 300 301 295 280 268 272 281 285 283 278 275 271 261 254 256 263 270 275 276 280 293 294 280 289 316 327 334 357 339 325 321 319 319 321 316 308 313 312 299 281 296 321 294 288 266 203 189 190 266 259 265 298 328 354 17 7 36 42 346 5 37 32 2 360 12 16 8 20 82 117 125
279 273 274 278 280 282 282 284 290 293 294 296 294 291 293 294 295 298 297 287 285 294 290 282 277 280 289 297 290 272 265 258 255 257 255 255 272 286 278 306 346 328 302 328 331 310 302 307 300 293 296 294 294 310 312 302 317 318 296 282 257 183 185 209 242 257 264 279 338 22 23 357 8 36 30 36 49 45 24 10 18 27 27 32 57 85 100
273 272 274 277 277 279 281 284 289 292 292 293 295 292 289 289 291 295 293 286 290 300 296 291 288 287 293 302 299 290 284 274 263 253 242 237 240 254 274 301 319 309 296 307 311 295 288 295 288 284 292 296 296 309 312 289 312 323 304 275 261 247 275 270 256 262 292 42 82 102 90 8 347 18 37 39 44 46 34 18 18 29 37 39 42 52 64
269 270 270 270 271 275 280 285 289 291 292 293 293 289 286 288 290 287 283 284 284 277 274 281 289 298 310 312 305 297 289 276 266 260 252 245 241 245 259 280 292 289 284 285 282 276 279 284 283 284 288 294 303 302 281 270 287 295 283 288 321 317 287 280 273 267 22 46 27 145 137 114 9 46 49 27 21 34 41 33 25 25 29 34 39 40 41
265 267 265 265 270 275 281 286 288 290 292 295 293 288 287 287 284 274 270 275 282 280 274 278 297 318 316 307 300 297 286 272 269 267 261 257 253 249 250 257 267 276 279 275 266 263 263 263 266 269 275 288 299 294 283 274 279 283 281 291 319 314 293 293 297 291 25 12 326 320 79 89 322 29 15 360 6 28 42 41 40 38 28 22 28 34 35
262 264 262 266 273 277 280 286 288 289 294 298 295 292 287 279 270 264 259 254 258 276 291 294 301 307 303 298 301 306 297 284 280 275 268 267 265 256 250 248 252 259 265 268 268 264 257 261 267 266 273 294 301 289 284 281 273 274 279 278 283 287 280 289 306 319 112 221 281 318 337 306 311 356 353 342 338 6 47 47 40 44 43 30 24 26 29
259 262 262 267 273 275 278 285 288 291 299 303 300 297 289 271 252 249 244 235 243 270 293 299 294 294 301 307 309 307 297 286 281 277 274 273 269 262 253 245 242 246 254 260 266 267 262 266 275 274 276 295 302 292 291 290 279 275 288 314 336 324 281 270 293 310 282 154 152 172 234 257 280 48 17 321 309 333 44 56 39 36 46 48 40 25 17
258 262 263 265 270 274 278 283 284 290 301 302 300 297 289 253 153 180 214 217 246 288 300 299 295 299 306 302 297 295 296 295 293 288 282 277 271 265 258 249 239 236 243 248 252 261 266 266 267 266 264 267 274 281 284 283 280 285 298 345 353 310 288 282 298 307 306 53 110 150 204 239 236 152 156 208 267 311 34 55 47 37 32 39 56 49 18
258 259 262 265 270 275 278 278 279 288 294 290 287 292 291 325 90 114 186 218 288 307 295 285 291 297 296 288 287 294 298 297 296 292 281 272 266 260 257 255 247 232 234 245 248 252 261 265 268 270 266 253 248 263 276 277 277 285 294 286 211 271 288 296 305 303 303 325 81 142 171 212 224 193 168 167 200 182 76 70 60 42 8 16 55 63 39
257 258 261 265 270 276 280 278 278 280 278 269 262 265 276 283 283 250 239 259 290 294 283 285 295 298 301 302 301 302 300 297 296 292 277 266 269 267 257 255 255 240 231 240 250 251 251 253 256 264 265 253 243 256 268 269 268 277 291 299 298 282 279 286 298 308 306 299 274 171 177 194 193 189 191 164 108 92 89 88 83 74 44 47 57 58 52
254 258 261 264 271 278 279 277 275 274 274 272 267 263 264 268 269 264 260 264 266 259 253 283 291 289 299 307 303 310 326 325 308 300 291 285 297 294 271 260 258 244 226 225 240 251 251 246 246 253 254 247 247 257 262 263 267 275 285 293 295 283 271 272 283 286 276 276 288 230 217 202 171 167 176 161 124 76 68 96 105 94 88 89 87 90 93
253 258 259 263 272 278 278 277 277 274 271 269 270 267 262 258 251 240 239 244 241 228 227 256 276 285 296 295 295 332 6 349 313 305 314 309 299 292 281 268 255 237 224 223 234 246 251 252 251 253 250 241 239 251 258 260 266 274 280 281 281 275 268 269 274 270 259 263 255 206 210 211 182 178 175 155 131 102 89 133 132 118 108 110 117 118 117
253 254 256 267 282 288 286 280 270 265 262 259 259 272 284 256 230 215 217 233 244 236 231 235 250 281 303 300 301 342 357 338 312 308 316 309 296 288 284 275 261 244 226 221 238 248 250 249 248 250 252 246 241 244 251 258 265 271 273 273 272 268 266 270 274 246 236 264 262 247 231 224 223 213 183 147 131 138 153 116 103 121 129 118 98 83 82
250 250 263 285 294 291 282 264 239 237 257 266 241 237 250 248 240 235 241 252 253 250 270 278 257 269 295 296 298 331 340 324 313 318 315 304 299 296 287 275 268 260 236 226 245 252 250 247 248 249 247 242 241 244 249 259 268 271 272 272 270 267 274 278 198 145 200 257 260 261 260 239 223 221 192 151 139 141 142 110 78 99 116 101 88 77 67
245 256 281 293 284 266 266 255 217 211 250 290 273 246 242 242 247 246 243 244 239 232 246 272 264 267 284 284 290 328 332 316 318 326 318 307 310 306 287 273 271 271 259 246 248 253 252 247 245 246 245 244 250 256 258 259 262 265 268 272 268 266 277 277 141 134 172 264 258 252 254 235 209 210 195 163 143 113 119 114 92 88 92 85 79 73 67
248 269 277 275 263 258 269 258 182 194 253 278 284 269 237 216 232 241 225 219 227 220 224 252 259 261 268 270 280 305 314 312 315 317 312 316 317 304 289 283 285 289 279 266 260 257 251 244 242 248 252 253 257 261 262 261 262 263 266 270 269 265 267 260 182 158 178 230 239 234 234 223 206 204 189 169 163 143 118 94 77 79 83 78 74 74 69
243 252 243 244 251 259 330 65 71 281 266 256 255 256 221 193 215 238 209 205 226 225 223 241 251 255 259 266 277 289 295 300 304 305 310 318 315 307 305 306 308 297 282 275 275 272 254 247 246 250 253 254 255 258 259 258 260 261 260 259 261 260 255 252 230 206 204 216 221 215 214 222 214 193 184 201 204 154 115 98 92 89 84 78 75 73 69
220 231 232 239 249 255 2 14 346 301 264 236 225 235 240 225 224 224 215 223 230 220 215 235 251 255 257 265 278 287 285 284 295 304 309 306 299 298 297 294 299 296 279 270 274 287 271 263 258 254 255 258 258 258 260 259 258 261 261 259 262 263 253 238 224 215 217 220 163 118 124 237 245 215 212 216 194 152 130 123 116 101 89 83 78 73 71
210 218 223 242 255 264 289 302 287 255 241 235 225 230 241 237 225 223 243 255 253 232 212 244 267 268 261 269 284 295 301 299 295 294 292 291 292 291 284 285 294 285 270 269 286 288 274 271 265 255 255 265 266 262 266 266 260 258 261 259 257 257 247 232 214 204 206 193 115 94 113 223 220 224 243 232 190 154 141 132 123 114 109 102 90 78 70
213 212 243 281 269 260 257 252 235 219 232 247 240 236 237 234 232 230 231 248 276 280 220 237 278 295 293 286 287 293 299 300 295 281 278 286 295 289 282 284 278 262 268 289 306 283 266 266 262 259 282 309 298 280 267 270 273 273 263 243 237 238 235 227 214 199 187 167 138 135 177 204 201 211 228 218 175 147 144 136 127 120 112 103 92 81 70
214 220 250 262 249 233 230 226 206 197 218 223 221 235 236 225 227 236 229 223 261 278 270 275 297 299 288 281 284 292 293 291 290 282 279 284 291 286 280 276 264 264 287 311 295 267 256 256 256 279 354 352 341 336 330 320 316 312 286 226 217 224 221 217 204 166 130 109 117 146 169 199 207 206 205 186 153 145 144 134 125 120 112 104 93 79 67
184 200 227 245 235 217 218 211 176 183 217 221 214 228 239 230 222 233 233 187 212 265 286 301 305 302 301 304 308 302 294 287 275 269 275 279 281 278 272 269 273 285 301 296 277 265 260 255 256 317 359 351 350 351 344 334 327 315 291 225 184 193 188 172 152 127 103 80 33 152 67 297 233 193 170 155 148 144 134 124 121 119 111 101 91 77 62
178 188 195 215 227 212 202 188 176 197 227 231 224 237 259 260 248 253 277 328 272 281 292 303 302 298 300 304 299 289 288 284 269 266 274 280 280 272 266 273 294 300 293 282 274 266 261 257 261 341 354 344 344 344 336 328 324 313 289 222 164 155 145 134 128 119 106 99 132 137 93 293 250 187 146 139 140 134 128 127 128 125 117 107 94 78 62
209 209 201 219 235 223 206 205 209 218 234 244 245 256 271 273 271 288 305 309 296 293 297 305 303 295 296 301 296 284 282 280 272 268 271 274 274 274 275 284 289 281 273 277 276 266 265 279 319 358 348 337 336 337 332 328 328 314 286 234 168 151 149 140 125 115 114 121 130 132 165 219 214 166 134 131 131 125 123 123 121 123 127 116 84 58 59
217 224 230 240 243 221 213 222 235 245 264 277 268 262 273 274 270 278 286 292 297 297 297 299 297 292 292 296 287 276 275 275 268 269 273 269 267 277 282 277 271 265 266 276 279 276 292 335 352 349 336 326 327 335 333 329 330 321 296 254 176 152 154 146 129 122 127 123 103 96 213 204 173 138 130 133 125 114 111 109 101 98 104 102 74 12 41
207 219 224 228 233 224 221 234 249 254 261 268 250 236 251 262 265 275 288 296 295 294 295 300 302 297 293 287 278 276 280 274 263 266 272 264 263 276 270 251 251 259 264 278 297 321 345 347 339 332 324 318 324 333 331 326 330 327 301 260 180 146 147 142 127 120 119 116 123 188 202 169 133 122 128 129 118 110 110 108 100 92 88 102 136 219 293
244 249 228 231 256 258 248 255 268 265 253 245 239 239 250 261 269 283 299 300 292 293 298 301 295 291 294 295 285 279 275 264 258 276 286 264 255 267 267 261 268 279 295 327 330 336 346 342 327 319 315 314 322 330 327 323 325 318 292 258 150 130 137 131 120 120 131 147 169 176 153 127 120 127 133 129 123 122 124 123 114 104 105 119 103 90 75
242 248 234 236 253 259 245 242 256 260 250 233 228 235 257 272 278 293 312 303 293 295 297 285 270 268 282 290 285 278 274 267 269 279 279 269 261 262 268 273 284 303 337 340 327 326 333 332 321 313 310 310 319 325 323 321 321 310 288 261 93 97 124 129 130 144 157 154 148 142 135 132 136 137 129 127 132 125 109 94 101 108 111 111 105 101 104
221 235 242 240 246 257 263 254 254 259 260 252 246 255 275 280 282 297 324 311 289 285 285 283 277 275 273 272 274 279 286 286 271 269 273 278 280 277 279 288 304 325 331 324 320 323 325 319 311 307 304 306 316 323 320 317 318 311 291 228 140 146 165 152 148 151 145 133 131 137 141 139 132 122 118 123 128 120 109 104 110 116 120 120 111 104 103
216 233 249 245 243 254 264 264 262 263 263 260 264 273 278 282 287 298 305 291 276 277 287 295 291 277 270 272 285 296 290 280 272 273 277 284 288 286 292 305 319 326 326 319 315 315 313 305 300 301 301 303 312 320 317 310 304 292 267 213 169 166 171 156 139 133 131 132 134 135 127 119 118 121 124 125 123 121 120 122 125 128 125 115 107 103 100